Location: Abundant Grace Fellowship
(35.0349°N, 90.0924°W)
Time: 21:51:39
(UTC+00:00)

SKYMED 2 - Pass Details

Date: 18 January 2026
Orbit: 621 x 624 km, 97.9° (Epoch: 11 February)

Event Time Altitude Azimuth Distance (km) Brightness Sun altitude
Rises 11:48:30 0° 185° (S) 2,888 7.1 -16.0°
Reaches altitude 10° 11:50:48 10° 194° (SSW) 1,986 6.2 -15.5°
Maximum altitude 11:54:49 37° 262° (W) 970 4.1 -14.7°
Enters shadow 11:57:59 15° 324° (NW) 1,681 5.3 -14.1°
